Weather History for Nantucket, MA

Change the Weather History Date:

Tuesday, July 29, 2014

  Actual Average Record
Temperature  
Mean Temperature 68 °F -  
Max Temperature 73 °F 77 °F 90 °F (1949)
Min Temperature 64 °F 62 °F 53 °F (2001)
Cooling Degree Days 3    
Growing Degree Days 18 (Base 50)    
Moisture  
Dew Point 62 °F    
Average Humidity 81    
Maximum Humidity 90    
Minimum Humidity 66    
Precipitation  
Precipitation 0.00 in - - ()
Sea Level Pressure  
Sea Level Pressure 29.81 in    
Wind  
Wind Speed 12 mph (WSW)    
Max Wind Speed 18 mph    
Max Gust Speed 17 mph    
Visibility 10 miles    
Events      
Averages and records for this station are not official NWS values.
T = Trace of Precipitation, MM = Missing Value Source: NWS Daily Summary

Daily Weather History Graph

Daily Weather History Graph

Search for Another Location

Airport:

Trip Planner

Search our weather history database for the weather conditions in past years. The results will help you decide how hot, cold, wet, or windy it might be!

Date:

Astronomy

Jul. 29, 2014 Rise Set
Actual Time 5:32 AM EDT 8:00 PM EDT
Civil Twilight 5:01 AM EDT 8:31 PM EDT
Nautical Twilight 4:22 AM EDT 9:10 PM EDT
Astronomical Twilight 3:38 AM EDT 9:53 PM EDT
Moon 8:08 AM EDT (7/29) 9:08 PM EDT (7/29)
Length of Visible Light 15h 30m
Length of Day
14h 27m
Waxing Crescent, 7% of the Moon is Illuminated
Jul 29
Waxing Crescent
Aug 3
First Quarter
Aug 10
Full
Aug 17
Last Quarter
Aug 25
New

Hourly Weather History & Observations

Time (EDT) Temp. Dew Point Humidity Pressure Visibility Wind Dir Wind Speed Gust Speed Precip Events Conditions
12:53 AM 68.0 °F 64.9 °F 90% 29.62 in 9.0 mi SSW 18.4 mph - N/A   Clear
1:53 AM 69.1 °F 64.9 °F 87% 29.64 in 10.0 mi SW 17.3 mph - N/A   Clear
2:53 AM 68.0 °F 64.0 °F 87% 29.66 in 8.0 mi SW 12.7 mph - N/A   Clear
3:53 AM 66.9 °F 63.0 °F 87% 29.68 in 10.0 mi WSW 12.7 mph - N/A   Clear
4:53 AM 66.9 °F 63.0 °F 87% 29.70 in 10.0 mi WSW 13.8 mph - N/A   Clear
5:53 AM 66.0 °F 63.0 °F 90% 29.72 in 10.0 mi WSW 10.4 mph - N/A   Clear
6:53 AM 66.0 °F 62.1 °F 87% 29.74 in 10.0 mi West 8.1 mph - N/A   Clear
7:24 AM 68.0 °F 60.8 °F 78% 29.76 in 10.0 mi West 9.2 mph - N/A   Mostly Cloudy
7:35 AM 68.0 °F 62.6 °F 83% 29.77 in 10.0 mi WSW 9.2 mph - N/A   Clear
7:53 AM 69.1 °F 62.1 °F 78% 29.77 in 10.0 mi West 11.5 mph - N/A   Clear
8:53 AM 70.0 °F 61.0 °F 73% 29.78 in 10.0 mi West 10.4 mph - N/A   Scattered Clouds
10:53 AM 72.0 °F 61.0 °F 68% 29.81 in 10.0 mi West 10.4 mph 17.3 mph N/A   Clear
11:53 AM 72.0 °F 60.1 °F 66% 29.82 in 10.0 mi West 8.1 mph - N/A   Clear
12:53 PM 72.0 °F 61.0 °F 68% 29.83 in 10.0 mi SW 10.4 mph - N/A   Clear
1:53 PM 71.1 °F 62.1 °F 73% 29.85 in 10.0 mi SW 11.5 mph - N/A   Clear
2:53 PM 71.1 °F 61.0 °F 70% 29.87 in 10.0 mi SW 11.5 mph - N/A   Clear
3:53 PM 71.1 °F 62.1 °F 73% 29.88 in 10.0 mi SSW 11.5 mph - N/A   Clear
4:53 PM 69.1 °F 62.1 °F 78% 29.89 in 10.0 mi SSW 10.4 mph - N/A   Clear
6:53 PM 66.9 °F 62.1 °F 84% 29.93 in 10.0 mi SSW 9.2 mph - N/A   Clear
7:53 PM 66.0 °F 61.0 °F 84% 29.93 in 10.0 mi SW 8.1 mph - N/A   Clear
8:53 PM 64.9 °F 61.0 °F 87% 29.93 in 10.0 mi WSW 8.1 mph - N/A   Clear
9:53 PM 64.9 °F 61.0 °F 87% 29.95 in 10.0 mi WSW 8.1 mph - N/A   Clear
10:53 PM 64.9 °F 61.0 °F 87% 29.96 in 10.0 mi WSW 5.8 mph - N/A   Clear
11:53 PM 64.0 °F 61.0 °F 90% 29.97 in 10.0 mi WSW 5.8 mph - N/A   Clear